Weather History for Erzincan, Turkey

Change the Weather History Date:

Friday, February 8, 2013

  Actual Average Record
Temperature  
Mean Temperature 38 °F -  
Max Temperature 52 °F 42 °F - ()
Min Temperature 25 °F 25 °F - ()
Degree Days  
Heating Degree Days 26    
Moisture  
Dew Point 29 °F    
Average Humidity 64    
Maximum Humidity 100    
Minimum Humidity 29    
Precipitation  
Precipitation 0.00 in 0.04 in - ()
Sea Level Pressure  
Sea Level Pressure 30.13 in    
Wind  
Wind Speed 6 mph ()    
Max Wind Speed 23 mph    
Max Gust Speed 22 mph    
Visibility 6.2 miles    
Events      
T = Trace of Precipitation, MM = Missing Value Source: Averaged Metar Reports

Daily Weather History Graph

Daily Weather History Graph

Search for Another Location

Airport:

Trip Planner

Search our weather history database for the weather conditions in past years. The results will help you decide how hot, cold, wet, or windy it might be!

Date:

Astronomy

Feb. 08, 2013 Rise Set
Actual Time 6:22 AM EET 4:49 PM EET
Civil Twilight 5:54 AM EET 5:17 PM EET
Nautical Twilight 5:22 AM EET 5:49 PM EET
Astronomical Twilight 4:51 AM EET 6:21 PM EET
Moon 4:34 AM EET (2/8) 2:58 PM EET (2/8)
Length of Visible Light 11h 23m
Length of Day
10h 27m
Waning Crescent, 5% of the Moon is Illuminated
Feb 8
Waning Crescent
Feb 10
New
Feb 17
First Quarter
Feb 25
Full
Mar 4
Last Quarter

Hourly Weather History & Observations

Time (EET) Temp. Windchill Dew Point Humidity Pressure Visibility Wind Dir Wind Speed Gust Speed Precip Events Conditions
12:50 AM 32.0 °F - 28.4 °F 87% 30.18 in 6.2 mi Variable 2.3 mph - N/A   Scattered Clouds
1:50 AM 32.0 °F 26.4 °F 28.4 °F 87% 30.18 in 6.2 mi NW 5.8 mph - N/A   Partly Cloudy
2:00 AM 31 °F - 28 °F 82%  in 6 mi NW 5.8 mph - -   Scattered Clouds
2:50 AM 28.4 °F - 26.6 °F 93% 30.18 in - Variable 1.2 mph - N/A   Clear
3:50 AM 26.6 °F - 24.8 °F 93% 30.18 in - Calm Calm - N/A   Clear
4:50 AM 26.6 °F - 24.8 °F 93% 30.18 in - Calm Calm - N/A   Clear
5:50 AM 26.6 °F - 24.8 °F 93% 30.18 in 6.2 mi South 1.2 mph - N/A   Partly Cloudy
6:50 AM 26.6 °F - 26.6 °F 100% 30.18 in 6.2 mi Variable 1.2 mph - N/A   Partly Cloudy
8:00 AM 31 °F - 29 °F 87%  in 6 mi Calm Calm - -   Scattered Clouds
8:50 AM 37.4 °F 34.9 °F 32.0 °F 81% 30.18 in 6.2 mi West 3.5 mph - N/A   Partly Cloudy
9:50 AM 46.4 °F 45.2 °F 28.4 °F 50% 30.18 in 6.2 mi NW 3.5 mph - N/A   Partly Cloudy
10:50 AM 48.2 °F - 30.2 °F 50% 30.15 in 6.2 mi SE 2.3 mph - N/A   Partly Cloudy
11:50 AM 50.0 °F - 28.4 °F 43% 30.12 in 6.2 mi Variable 4.6 mph - N/A   Partly Cloudy
12:50 PM 51.8 °F - 30.2 °F 44% 30.12 in 6.2 mi SW 5.8 mph - N/A   Scattered Clouds
1:50 PM 51.8 °F - 28.4 °F 41% 30.09 in 6.2 mi SSE 8.1 mph - N/A   Scattered Clouds
2:00 PM 52 °F - 29 °F 29%  in 6 mi SSE 8.1 mph - -   Scattered Clouds
2:50 PM 50.0 °F - 30.2 °F 47% 30.12 in 6.2 mi SE 18.4 mph - N/A   Scattered Clouds
3:50 PM 48.2 °F - 30.2 °F 50% 30.12 in 6.2 mi SE 19.6 mph - N/A   Scattered Clouds
4:50 PM 46.4 °F 39.5 °F 30.2 °F 53% 30.09 in 6.2 mi SE 17.3 mph - N/A   Scattered Clouds
5:50 PM 44.6 °F 36.6 °F 30.2 °F 57% 30.09 in 6.2 mi SE 19.6 mph - N/A   Scattered Clouds
6:50 PM 44.6 °F 37.2 °F 30.2 °F 57% 30.09 in 6.2 mi SE 17.3 mph - N/A   Scattered Clouds
7:50 PM 46.4 °F 38.7 °F 32.0 °F 57% 30.06 in 6.2 mi ESE 20.7 mph - N/A   Mostly Cloudy
8:00 PM 46 °F - 31 °F 45%  in 6 mi ESE 20.7 mph - -   Partly Cloudy
8:50 PM 46.4 °F 38.3 °F 30.2 °F 53% 30.06 in 6.2 mi SE 23.0 mph - N/A   Mostly Cloudy
9:50 PM 46.4 °F 39.2 °F 30.2 °F 53% 30.06 in 6.2 mi SE 18.4 mph - N/A   Mostly Cloudy
10:50 PM 44.6 °F 37.4 °F 30.2 °F 57% 30.06 in 6.2 mi ESE 16.1 mph - N/A   Mostly Cloudy
11:50 PM 44.6 °F 39.2 °F 30.2 °F 57% 30.06 in 6.2 mi ESE 10.4 mph 21.9 mph N/A   Scattered Clouds